x

8452944 - Conimicut Light, Ri (cptr1) Weather Station

7:54 - Sat 28th Feb 2015 All times are EST. -5 hours from GMT.

  • Wind
    6mph, 7mph gusts
  • Sea Temp 31°f
  • Air Temp 25°f
  • Sea Pressure 1040mb
  • 8452944 - Conimicut Light, Ri
  • 8452944 - Conimicut Light, Ri

More Historic Weather Station data

Upgrade to MSW Pro to gain access to the past 30 days of data for over 8000 Wavebouys and Weather Stations around the globe.

Join Pro

Comparision Forecast

View Surf forecast
   
sam. 02/28 7:54 6 7 mph 1040mb 31f 25f
7:48 6 7 mph 1039.9mb 31f 26f
7:42 6 7 mph 1039.9mb 31f 26f
7:36 6 7 mph 1039.9mb 31f 26f
7:30 6 7 mph 1039.9mb 31f 26f
7:24 6 7 mph 1039.9mb 31f 26f
7:18 6
mph
1039.9mb 31f 26f
7:12 6
mph
1039.9mb 31f 26f
7:06 6
mph
1040mb 31f 27f
7:00 6 7 mph 1040mb 31f 27f
6:54 6 7 mph 1040mb 31f 27f
6:48 6 7 mph 1040mb 31f 27f
6:42 6 7 mph 1040mb 31f 27f
6:36 6 8 mph 1040mb 31f 27f
6:00 8 9 mph 1039.6mb 31f 27f
5:54 9 10 mph 1039.6mb 31f 27f
5:48 9 10 mph 1039.5mb 31f 27f
5:42 9 10 mph 1039.4mb 31f 27f
5:36 9
mph
1039.4mb 31f 27f
5:30 9 10 mph 1039.4mb 31f 27f
5:24 9 10 mph 1039.4mb 31f 27f
5:18 9 10 mph 1039.4mb 31f 27f
5:12 10 11 mph 1039.4mb 31f 27f
5:06 9 10 mph 1039.4mb 31f 27f
5:00 10 11 mph 1039.4mb 31f 27f
4:54 10 11 mph 1039.4mb 31f 27f
4:48 10 11 mph 1039.3mb 31f 27f
4:42 10 11 mph 1039.3mb 31f 27f
4:36 9 10 mph 1039.3mb 31f 27f
4:30 9 10 mph 1039.4mb 31f 27f
4:24 9 10 mph 1039.3mb 31f 27f
4:18 9 10 mph 1039.3mb 31f 27f
4:12 9 10 mph 1039.3mb 31f 27f
4:06 8 9 mph 1039.2mb 31f 27f
4:00 8 9 mph 1039.2mb 31f 27f
3:54 8 9 mph 1039.2mb 31f 27f
3:48 9 10 mph 1039.2mb 31f 27f
3:42 9 10 mph 1039.2mb 31f 26f
3:36 9 11 mph 1039.2mb 31f 27f
3:30 9 10 mph 1039.2mb 31f 26f
3:24 9 10 mph 1039.3mb 31f 26f
3:18 9 11 mph 1039.4mb 31f 26f
3:12 9 10 mph 1039.4mb 31f 26f
3:06 10 13 mph 1039.4mb 31f 26f
3:00 10 11 mph 1039.5mb 31f 26f
2:54 9 11 mph 1039.5mb 31f 26f
2:48 10 11 mph 1039.5mb 31f 25f
2:42 10 11 mph 1039.6mb 31f 25f
2:36 9 10 mph 1039.6mb 31f 25f
2:30 9 11 mph 1039.7mb 31f 25f
2:24 10 11 mph 1039.7mb 31f 25f
2:18 10 11 mph 1039.8mb 31f 24f
2:12 9 10 mph 1039.8mb 31f 24f
2:06 10 11 mph 1039.8mb 31f 24f
2:00 11 13 mph 1039.9mb 31f 24f
1:54 10 13 mph 1040mb 31f 25f
1:48 9 11 mph 1040mb 31f 24f
1:42 8 10 mph 1040.2mb 31f 24f
1:36 7 8 mph 1040.3mb 31f 24f
1:30 7 8 mph 1040.3mb 31f 24f
1:24 8 9 mph 1040.3mb 31f 24f
1:18 8 9 mph 1040.4mb 31f 24f
1:12 7 8 mph 1040.5mb 31f 24f
1:06 6 8 mph 1040.5mb 31f 24f
1:00 6 7 mph 1040.6mb 30f 24f
12:54 6
mph
1040.6mb 30f 24f
12:48 5 6 mph 1040.7mb 30f 24f
12:42 3 7 mph 1040.7mb 30f 24f
12:36 5 6 mph 1040.7mb 30f 24f
12:30 2 8 mph 1040.8mb 30f 24f
12:24 7 9 mph 1040.8mb 30f 23f
12:18 6 8 mph 1041mb 30f 23f
12:12 5 6 mph 1041.1mb 30f 25f
12:06 3 5 mph 1041.2mb 30f 26f
12:00 2 3 mph 1041.3mb 30f 31f
11:54 2
mph
1041.4mb 30f 29f
11:48  -  2 mph 1041.4mb 30f 29f
11:42 1 3 mph 1041.5mb 30f 28f
11:36 2 3 mph 1041.5mb 30f 28f
11:30 1 5 mph 1041.5mb 30f 26f
11:24 3 6 mph 1041.5mb 30f 25f
11:18 5 6 mph 1041.4mb 30f 25f
11:12 6 7 mph 1041.3mb 30f 23f
11:06 6 8 mph 1041.4mb 30f 22f
11:00 7 9 mph 1041.4mb 30f 23f
10:54 7 9 mph 1041.3mb 30f 21f
10:48 7 10 mph 1041.4mb 30f 22f
10:42 10 11 mph 1041.3mb 30f 22f
10:36 9 11 mph 1041.3mb 30f 22f
10:30 9 11 mph 1041.2mb 30f 22f
10:24 10 13 mph 1041.3mb 30f 21f
10:18 9 11 mph 1041.2mb 30f 21f
10:12 10 13 mph 1041.2mb 30f 21f
10:06 10 13 mph 1041.1mb 30f 21f
10:00 10 11 mph 1041.2mb 30f 20f
9:54 9 10 mph 1041.4mb 30f 20f
9:48 9 11 mph 1041.4mb 30f 19f
9:42 9 11 mph 1041.5mb 30f 19f
9:36 10 11 mph 1041.5mb 30f 19f
9:30 8 11 mph 1041.6mb 30f 20f
9:24 9 13 mph 1041.6mb 30f 19f
9:18 10 11 mph 1041.6mb 30f 19f
9:12 10 13 mph 1041.5mb 30f 19f
9:06 10 14 mph 1041.5mb 30f 19f
9:00 11 14 mph 1041.5mb 30f 19f
8:54 13 14 mph 1041.6mb 30f 17f
8:48 11 14 mph 1041.6mb 30f 16f
8:42 11 15 mph 1041.6mb 30f 17f
8:36 13 15 mph 1041.5mb 30f 16f
8:30 13 14 mph 1041.3mb 30f 16f
8:24 13 16 mph 1041.2mb 30f 16f
8:18 13 16 mph 1041mb 30f 16f
8:12 14 15 mph 1041mb 30f 15f
8:06 14 16 mph 1040.8mb 30f 15f
8:00 15 17 mph 1040.7mb 30f 15f
7:54 14 17 mph 1040.6mb 30f 15f
7:48 15 17 mph 1040.5mb 30f 15f
7:42 14 17 mph 1040.5mb 30f 14f
7:36 14 16 mph 1040.4mb 30f 13f
7:30 15 16 mph 1040.3mb 30f 13f
7:24 15 17 mph 1040.3mb 30f 13f
7:18 15 16 mph 1040.3mb 30f 13f
7:12 14 16 mph 1040.2mb 30f 13f
7:06 14 16 mph 1040.2mb 30f 13f
7:00 14 16 mph 1040.1mb 30f 13f
6:54 15 18 mph 1039.9mb 30f 13f
6:48 14 16 mph 1039.7mb 30f 13f
6:42 14 16 mph 1039.8mb 30f 13f
6:36 15 17 mph 1039.6mb 30f 13f
6:30 13 15 mph 1039.6mb 30f 13f
6:24 14 16 mph 1039.6mb 30f 13f
6:18 13 14 mph 1039.4mb 30f 13f
6:12 11 14 mph 1039.4mb 30f 13f
6:06 13 15 mph 1039.3mb 30f 13f
6:00 14 15 mph 1039.2mb 30f 13f
5:54 13 15 mph 1039.2mb 30f 13f
5:48 11 15 mph 1039.1mb 30f 13f
5:42 11 13 mph 1038.9mb 30f 13f
5:36 11 16 mph 1038.9mb 30f 13f
5:30 14 16 mph 1038.7mb 30f 14f
5:24 13 15 mph 1038.6mb 30f 13f
5:18 13 16 mph 1038.5mb 30f 14f
5:12 14 16 mph 1038.3mb 30f 14f
5:06 14 15 mph 1038.2mb 30f 14f
5:00 13 14 mph 1038.1mb 30f 14f
4:54 13 16 mph 1038mb 30f 14f
4:48 14 16 mph 1037.9mb 31f 14f
4:42 13 16 mph 1037.9mb 31f 15f
4:36 13 14 mph 1037.8mb 31f 15f
4:30 13 15 mph 1037.6mb 31f 15f
4:24 13 15 mph 1037.6mb 31f 15f
4:18 13 15 mph 1037.5mb 31f 15f
4:12 13 14 mph 1037.4mb 31f 15f
4:06 14 15 mph 1037.2mb 31f 15f
4:00 14 15 mph 1036.9mb 31f 15f
3:54 14 17 mph 1036.8mb 31f 15f
3:48 15 17 mph 1036.7mb 31f 15f
3:42 15 18 mph 1036.7mb 31f 15f
3:36 15 18 mph 1036.5mb 31f 15f
3:30 16 18 mph 1036.4mb 31f 16f
3:24 16 18 mph 1036.3mb 31f 16f
3:18 15 18 mph 1036.3mb 31f 16f
3:12 15 17 mph 1036.2mb 31f 16f
3:06 15 17 mph 1036.1mb 31f 16f
3:00 14 17 mph 1036.2mb 31f 16f
2:54 15 17 mph 1036.2mb 31f 16f
2:48 16 20 mph 1036.2mb 31f 16f
2:42 15 17 mph 1036.2mb 31f 16f
2:36 14 16 mph 1036mb 31f 16f
2:30 14 16 mph 1036mb 31f 16f
2:24 14 16 mph 1035.9mb 31f 16f
2:18 15 16 mph 1035.8mb 31f 17f
2:12 14 16 mph 1035.9mb 31f 17f
2:06 14 17 mph 1036mb 31f 17f
2:00 15 17 mph 1035.9mb 31f 17f
1:54 14 16 mph 1035.9mb 31f 17f
1:48 13 17 mph 1035.9mb 31f 17f
1:42 13 15 mph 1035.8mb 31f 17f
1:36 13 15 mph 1035.8mb 31f 17f
1:30 14 16 mph 1035.7mb 31f 18f
1:24 15 17 mph 1035.6mb 31f 18f
1:18 13 16 mph 1035.5mb 31f 18f
1:12 15 17 mph 1035.4mb 31f 18f
1:06 15 18 mph 1035.3mb 31f 18f
1:00 15 18 mph 1035.2mb 31f 18f
12:54 15 17 mph 1035.1mb 31f 18f
12:48 16 17 mph 1035mb 31f 19f
12:42 15 17 mph 1035mb 31f 19f
12:36 15 17 mph 1034.9mb 31f 19f
12:30 16 20 mph 1034.7mb 31f 19f
12:24 16 18 mph 1034.6mb 31f 19f
12:18 14 17 mph 1034.5mb 31f 19f
12:12 15 18 mph 1034.4mb 31f 19f
12:06 15 18 mph 1034.4mb 31f 19f
12:00 15 17 mph 1034.4mb 31f 19f
ven. 02/27 11:54 15 18 mph 1034.4mb 31f 20f
11:48 15 18 mph 1034.4mb 31f 20f
11:42 16 18 mph 1034.4mb 31f 20f
11:36 15 18 mph 1034.3mb 31f 20f
11:30 14 16 mph 1034.2mb 31f 20f
11:24 14 15 mph 1034.2mb 31f 20f
11:18 13 14 mph 1034.1mb 31f 20f
11:12 11 14 mph 1034mb 31f 21f
11:06 13 15 mph 1034mb 31f 21f
11:00 13 16 mph 1033.9mb 31f 21f
10:54 13 15 mph 1033.7mb 31f 21f
10:48 14 16 mph 1033.6mb 31f 21f
10:42 13 14 mph 1033.6mb 31f 21f
10:36 13 14 mph 1033.5mb 31f 21f
10:30 13 14 mph 1033.5mb 31f 22f
10:24 11 13 mph 1033.5mb 31f 22f
10:18 11 13 mph 1033.5mb 31f 22f
10:12 10 14 mph 1033.4mb 31f 22f
10:06 13 14 mph 1033.3mb 31f 22f
10:00 9 13 mph 1033.2mb 31f 22f
9:54 10 14 mph 1033.2mb 31f 22f
9:48 9 14 mph 1033.1mb 31f 22f
9:42 10 16 mph 1033mb 31f 23f
9:36 11 15 mph 1032.9mb 31f 23f
9:30 13 16 mph 1032.8mb 31f 23f
9:24 13 16 mph 1032.7mb 31f 23f
9:18 14 16 mph 1032.6mb 31f 23f
9:12 14 16 mph 1032.4mb 31f 23f
9:06 15 17 mph 1032.2mb 31f 24f
9:00 14 17 mph 1032.1mb 31f 24f
8:54 11 14 mph 1032.1mb 31f 23f
8:48 9 11 mph 1032mb 31f 23f
8:42 9 10 mph 1031.9mb 31f 23f
8:36 8 9 mph 1031.7mb 31f 24f
8:30 7 8 mph 1031.6mb 31f 24f
8:24 8 9 mph 1031.5mb 31f 24f
8:18 8 9 mph 1031.4mb 31f 24f
8:12 8 9 mph 1031.3mb 31f 24f
8:06 8 9 mph 1031.1mb 31f 24f
8:00 8 9 mph 1031mb 31f 24f
7:54 8 9 mph 1030.9mb 31f 25f
7:48 8 9 mph 1030.9mb 31f 25f
7:42 7 8 mph 1030.9mb 31f 25f
7:36 7 8 mph 1030.8mb 31f 25f
7:30 7 9 mph 1030.9mb 31f 26f
7:24 8 10 mph 1030.9mb 31f 26f
7:18 9 10 mph 1030.8mb 31f 26f
7:12 8 10 mph 1030.7mb 31f 26f
7:06 7 8 mph 1030.6mb 31f 26f
7:00 6 7 mph 1030.5mb 31f 26f
6:54 6
mph
1030.4mb 31f 26f
6:48 5 6 mph 1030.4mb 31f 26f
6:42 6 7 mph 1030.4mb 31f 26f
6:36 6
mph
1030.3mb 31f 26f
6:30 6
mph
1030.2mb 31f 26f
6:24 5
mph
1030.1mb 31f 26f
6:18 3 6 mph 1030mb 31f 26f
6:12 6 7 mph 1029.8mb 31f 26f
6:06 3 6 mph 1029.8mb 31f 26f
6:00 5 6 mph 1029.7mb 31f 26f
5:54 5 7 mph 1029.6mb 31f 26f
5:48 6
mph
1029.4mb 31f 26f
5:42 5 6 mph 1029.3mb 31f 26f
5:36 6 7 mph 1029.1mb 31f 27f
5:30 6 8 mph 1029mb 31f 27f
5:24 7 8 mph 1028.9mb 31f 27f
5:18 7 9 mph 1028.9mb 31f 27f
5:12 8 9 mph 1028.7mb 31f 27f
5:06 9 10 mph 1028.6mb 31f 27f
5:00 10 11 mph 1028.5mb 31f 27f
4:54 10 11 mph 1028.5mb 31f 27f
4:48 11 13 mph 1028.4mb 31f 27f
4:42 10 11 mph 1028.3mb 31f 27f
4:36 10 13 mph 1028.3mb 31f 27f
4:30 9 11 mph 1028.2mb 31f 28f
4:24 10 11 mph 1028.1mb 31f 28f
4:18 9 10 mph 1028.1mb 31f 28f
4:12 9 11 mph 1028mb 31f 28f
4:06 8 10 mph 1027.9mb 31f 28f
4:00 7 11 mph 1027.8mb 31f 28f
3:54 9 13 mph 1027.8mb 31f 29f
3:48 10 11 mph 1027.6mb 31f 29f
3:42 7 11 mph 1027.6mb 31f 31f
3:36 9 11 mph 1027.5mb 31f 30f
3:30 10 11 mph 1027.5mb 31f 30f
3:24 9 13 mph 1027.4mb 31f 30f
3:18 13 16 mph 1027.3mb 31f 28f
3:12 8 11 mph 1027.3mb 31f 30f
3:06 6 8 mph 1027.2mb 31f 32f
3:00 7 8 mph 1027.1mb 31f 31f
2:54 7 8 mph 1027.2mb 31f 29f
2:48 8 11 mph 1027.1mb 31f 29f
2:42 6 8 mph 1027.1mb 31f 28f
2:36 7 9 mph 1027.1mb 31f 28f
2:30 10 14 mph 1027.1mb 31f 28f
2:24 5 8 mph 1027mb 31f 30f
2:18 6 7 mph 1027.1mb 31f 29f
2:12 3 6 mph 1026.9mb 31f 28f
2:06 3 7 mph 1026.9mb 31f 31f
2:00 7 10 mph 1026.8mb 31f 30f
1:54 10 11 mph 1026.8mb 31f 30f
1:48 9 13 mph 1026.7mb 31f 29f
1:42 7 11 mph 1026.7mb 31f 29f
1:36 8 9 mph 1026.7mb 30f 30f
1:30 5 8 mph 1026.8mb 30f 30f
1:24 6 9 mph 1026.8mb 30f 30f
1:18 5 7 mph 1026.8mb 30f 29f
1:12 5 8 mph 1026.8mb 30f 29f
1:06 6 9 mph 1026.8mb 30f 29f
1:00 7 8 mph 1026.9mb 30f 28f
12:54 3 8 mph 1026.8mb 30f 29f
12:48 6 8 mph 1026.9mb 30f 28f
12:42 7 9 mph 1027mb 30f 28f
12:36 6 8 mph 1027.2mb 30f 29f
12:30 5 7 mph 1027.3mb 30f 28f
12:24 5 6 mph 1027.4mb 30f 29f
12:18 2 3 mph 1027.6mb 30f 29f
12:12 2 6 mph 1027.6mb 30f 29f
12:06 6
mph
1027.6mb 30f 28f
12:00 5 6 mph 1027.6mb 30f 27f
11:54 7 9 mph 1027.6mb 30f 27f
11:48 6 8 mph 1027.5mb 30f 26f
11:42 8 9 mph 1027.6mb 30f 26f
11:36 5 8 mph 1027.6mb 30f 26f
11:30 7 9 mph 1027.7mb 30f 26f
11:24 8 13 mph 1027.6mb 30f 25f
11:18 9 11 mph 1027.5mb 30f 24f
11:12 9 13 mph 1027.5mb 30f 24f
11:06 10 11 mph 1027.5mb 30f 24f
11:00 10 13 mph 1027.4mb 30f 24f
10:54 10 11 mph 1027.4mb 30f 24f
10:48 10 13 mph 1027.4mb 30f 24f
10:42 9 13 mph 1027.3mb 30f 24f
10:36 10 13 mph 1027.3mb 30f 23f
10:30 9 11 mph 1027.4mb 30f 23f
10:24 10 14 mph 1027.5mb 30f 23f
10:18 10 15 mph 1027.3mb 30f 22f
10:12 10 15 mph 1027.4mb 30f 23f
10:06 13 14 mph 1027.3mb 30f 22f
10:00 13 14 mph 1027.4mb 30f 22f
9:54 13 15 mph 1027.4mb 30f 22f
9:48 14 17 mph 1027.4mb 30f 22f
9:42 15 16 mph 1027.3mb 30f 22f
9:36 14 16 mph 1027.2mb 30f 22f
9:30 14 16 mph 1027.2mb 30f 22f
9:24 14 17 mph 1027.2mb 30f 22f
9:18 15 17 mph 1027.2mb 30f 21f
9:12 15 17 mph 1027.2mb 30f 21f
9:06 14 15 mph 1027.4mb 30f 21f
9:00 14 17 mph 1027.3mb 30f 21f
8:54 15 17 mph 1027.2mb 30f 21f
8:48 13 15 mph 1027.2mb 30f 21f
8:42 11 14 mph 1027.2mb 30f 21f
8:36 13 15 mph 1027.2mb 30f 21f
8:30 11 15 mph 1027.2mb 30f 21f
8:24 14 17 mph 1027.1mb 30f 20f
8:18 13 15 mph 1027mb 30f 20f
8:12 10 14 mph 1026.9mb 30f 20f
8:06 11 13 mph 1026.8mb 30f 19f
8:00 11 14 mph 1026.8mb 30f 18f
7:54 11 13 mph 1026.8mb 30f 18f
7:48 11 14 mph 1026.7mb 30f 18f
7:42 11 14 mph 1026.7mb 30f 18f
7:36 11 13 mph 1026.6mb 30f 17f
7:30 11 14 mph 1026.4mb 30f 17f
7:24 13 14 mph 1026.3mb 30f 17f
7:18 13 14 mph 1026.1mb 30f 17f
7:12 13 14 mph 1026.1mb 30f 17f
7:06 11 14 mph 1025.8mb 30f 17f
7:00 10 13 mph 1025.8mb 30f 17f
6:54 10 13 mph 1025.5mb 30f 17f
6:48 11 13 mph 1025.4mb 30f 17f
6:42 10 11 mph 1025.4mb 30f 17f
6:36 6 7 mph 1025.3mb 30f 18f
6:30 5 6 mph 1025mb 30f 18f
6:24 6 7 mph 1024.8mb 30f 18f
6:18 3 5 mph 1024.6mb 30f 17f
6:12 5 7 mph 1024.5mb 30f 18f
6:06 6 8 mph 1024.6mb 30f 18f
6:00 8 9 mph 1024.6mb 30f 18f
5:54 9 10 mph 1024.6mb 30f 18f
5:48 9 11 mph 1024.5mb 30f 18f
5:42 9 11 mph 1024.4mb 30f 18f
5:36 10 11 mph 1024.5mb 30f 17f
5:30 10 11 mph 1024.5mb 30f 18f
5:24 10 13 mph 1024.4mb 30f 17f
5:18 10 11 mph 1024.2mb 30f 17f
5:12 9 11 mph 1024.2mb 30f 17f
5:06 9 10 mph 1024.1mb 30f 17f
5:00 9
mph
1023.9mb 30f 18f
4:54 7 9 mph 1023.7mb 30f 17f
4:48 7 8 mph 1023.6mb 30f 17f
4:42 6 7 mph 1023.6mb 30f 17f
4:36 7 8 mph 1023.5mb 30f 17f
4:30 7 8 mph 1023.4mb 30f 17f
4:24 7 8 mph 1023.3mb 30f 18f
4:18 7 8 mph 1023mb 30f 18f
4:12 7 8 mph 1023.1mb 30f 18f
4:06 6 7 mph 1023.2mb 30f 18f
4:00 6 7 mph 1023mb 30f 18f
3:54 6 7 mph 1022.8mb 30f 18f
3:48 5 6 mph 1022.8mb 30f 18f
3:42 6
mph
1022.6mb 30f 18f
3:36 6 7 mph 1022.5mb 30f 18f
3:30 6 7 mph 1022.4mb 30f 19f
3:24 7 8 mph 1022.3mb 30f 18f
3:18 7 8 mph 1022.2mb 30f 18f
3:12 7 8 mph 1022.1mb 30f 18f
3:06 7 8 mph 1022.1mb 30f 18f
3:00 7 8 mph 1022mb 30f 19f
2:54 8
mph
1021.8mb 30f 19f
2:48 7 8 mph 1021.7mb 30f 19f
2:42 7 8 mph 1021.6mb 30f 19f
2:36 6
mph
1021.5mb 30f 19f
2:30 3 6 mph 1021.3mb 30f 20f
2:24 5 6 mph 1021.2mb 30f 20f
2:18 5 6 mph 1021.2mb 30f 20f
2:12 6 7 mph 1021.2mb 30f 20f
2:06 6 7 mph 1021mb 30f 20f
2:00 6 7 mph 1020.9mb 30f 20f
1:54 6 8 mph 1020.8mb 30f 20f
1:48 7 8 mph 1020.7mb - 20f
1:42 6 8 mph 1020.7mb - 20f
1:36 7 8 mph 1020.7mb - 20f
1:30 7 8 mph 1020.7mb 30f 20f
1:24 7 8 mph 1020.6mb 30f 20f
1:18 6 8 mph 1020.5mb 30f 21f
1:12 7 8 mph 1020.4mb 30f 21f
1:06 7 8 mph 1020.3mb 30f 21f
1:00 7 8 mph 1020.2mb 30f 21f
12:54 7
mph
1020.2mb 30f 21f
12:48 7
mph
1020.2mb 30f 21f
12:42 7
mph
1020.2mb 30f 21f
12:36 6 7 mph 1020.1mb 30f 21f
12:30 6 7 mph 1020.1mb 30f 21f
12:24 6 7 mph 1020.1mb 30f 21f
12:18 6
mph
1020mb 30f 21f
12:12 5 6 mph 1019.9mb 30f 21f
12:06 6
mph
1019.8mb 30f 21f
12:00 6
mph
1019.8mb 30f 21f
jeu. 02/26 11:54 6
mph
1019.9mb 30f 21f
11:48 5 7 mph 1019.8mb 30f 21f
11:42 6 7 mph 1019.7mb 30f 22f
11:36 6 7 mph 1019.8mb 30f 22f
11:30 6 7 mph 1019.9mb 30f 22f
11:24 6 7 mph 1019.8mb 30f 22f
11:18 6 7 mph 1019.8mb 30f 22f
11:12 6 7 mph 1019.6mb 30f 22f
11:06 6 7 mph 1019.6mb 30f 22f
11:00 5 6 mph 1019.6mb 30f 22f
10:54 6 7 mph 1019.5mb 30f 22f
10:48 6 8 mph 1019.5mb 30f 22f
10:42 6 8 mph 1019.4mb 30f 22f
10:36 6 7 mph 1019.6mb 30f 22f
10:30 5 7 mph 1019.6mb 30f 22f
10:24 5 6 mph 1019.7mb 30f 22f
10:18 5 6 mph 1019.7mb 30f 22f
10:12 5 7 mph 1019.6mb 30f 22f
10:06 6 7 mph 1019.7mb 30f 22f
10:00 6 7 mph 1019.6mb 30f 22f
9:54 6 7 mph 1019.6mb 30f 22f
9:48 6 7 mph 1019.4mb 30f 22f
9:42 5 6 mph 1019.3mb 30f 22f
9:36 5 7 mph 1019.3mb 30f 22f
9:30 5 6 mph 1018.9mb 30f 21f
9:24 6 7 mph 1018.7mb 30f 21f
9:18 6 7 mph 1018.5mb 30f 22f
9:12 6
mph
1018.6mb 30f 22f
9:06 6 7 mph 1018.5mb 30f 22f
9:00 6 7 mph 1018.5mb 30f 22f
8:54 7 8 mph 1018.4mb 30f 22f
8:48 6 8 mph 1018.3mb 30f 22f
8:42 6 7 mph 1018.4mb 30f 22f
8:36 5 6 mph 1018.2mb 30f 22f
8:30 6 7 mph 1018mb 30f 22f
8:24 5 8 mph 1017.9mb 30f 22f
8:18 6 8 mph 1017.7mb 30f 22f
8:12 7 8 mph 1017.6mb 30f 22f
8:06 6 8 mph 1017.4mb 30f 22f
8:00 7 8 mph 1017.2mb 30f 22f
7:54 6 8 mph 1017.1mb 30f 22f
7:48 7 8 mph 1017mb 30f 22f
7:42 7 9 mph 1017.1mb 30f 22f
7:36 8 9 mph 1017.1mb 30f 22f
7:30 8
mph
1017mb 30f 22f
7:24 7 9 mph 1016.8mb 30f 22f
7:18 8 10 mph 1016.8mb 30f 22f
7:12 8 11 mph 1016.6mb 30f 22f
7:06 10 14 mph 1016.6mb 30f 22f
7:00 10 14 mph 1016.4mb 30f 23f
6:54 11 13 mph 1016.4mb 30f 23f
6:48 10 13 mph 1016.4mb 30f 23f
6:42 10 11 mph 1016.3mb 30f 23f
6:36 9 13 mph 1016.2mb 30f 23f
6:30 11 14 mph 1016.1mb 30f 23f
6:24 10 15 mph 1016.1mb 30f 23f
6:18 13 15 mph 1015.9mb 30f 23f
6:12 13 16 mph 1015.8mb 30f 23f
6:06 16 18 mph 1015.9mb 30f 23f
6:00 14 18 mph 1015.8mb 30f 23f
5:54 15 21 mph 1015.5mb 30f 23f
5:48 16 18 mph 1015.2mb 30f 23f
5:42 16 18 mph 1015.1mb 30f 23f
5:36 15 18 mph 1015mb 30f 23f
5:30 14 18 mph 1015mb 30f 23f
5:24 15 20 mph 1014.8mb 30f 23f
5:18 16 18 mph 1014.8mb 30f 23f
5:12 16 20 mph 1014.8mb 30f 24f
5:06 15 17 mph 1014.9mb 30f 24f
5:00 15 18 mph 1015.1mb 30f 24f
4:54 17 20 mph 1015.1mb 30f 24f
4:48 15 17 mph 1015mb 30f 24f
4:42 13 17 mph 1014.9mb 30f 24f
4:36 15 17 mph 1014.9mb 30f 24f
4:30 16 23 mph 1014.8mb 30f 24f
4:24 17 23 mph 1014.8mb 30f 24f
4:18 20 22 mph 1014.6mb 30f 24f
4:12 14 18 mph 1014.6mb 30f 24f
4:06 15 20 mph 1014.5mb 30f 24f
4:00 16 21 mph 1014.2mb 30f 24f
3:54 18 22 mph 1014.1mb 30f 24f
3:48 17 22 mph 1013.9mb 30f 24f
3:42 20 25 mph 1013.8mb 30f 24f
3:36 14 22 mph 1013.9mb 30f 24f
3:30 16 23 mph 1013.9mb 30f 24f
3:24 21 23 mph 1013.7mb 30f 24f
3:18 14 23 mph 1013.6mb 30f 25f
3:12 17 23 mph 1013.4mb 30f 24f
3:06 18 22 mph 1013.1mb 30f 25f
3:00 15 20 mph 1013.1mb 30f 25f
2:54 17 23 mph 1013.1mb 30f 25f
2:48 20 26 mph 1013.2mb 30f 24f
2:42 20 23 mph 1013.2mb 30f 25f
2:36 21 22 mph 1013.2mb 30f 25f
2:30 21 24 mph 1013.1mb 30f 24f
2:24 15 17 mph 1013.3mb 30f 24f
2:18 20 24 mph 1013.3mb 30f 24f
2:12 15 20 mph 1013.3mb 30f 24f
2:06 14 18 mph 1013.3mb 30f 24f
2:00 17 18 mph 1013.9mb 30f 24f
1:54 15 18 mph 1013.8mb 30f 24f
1:48 17 22 mph 1013.8mb 30f 23f
1:42 16 20 mph 1013.7mb 30f 23f
1:36 15 20 mph 1013.7mb 30f 23f
1:30 16 18 mph 1013.6mb 30f 22f
1:24 16 18 mph 1013.7mb 30f 22f
1:18 16 21 mph 1013.7mb 30f 21f
1:12 16 21 mph 1014mb 30f 21f
1:06 15 18 mph 1014.2mb 30f 21f
1:00 14 16 mph 1014.5mb 30f 21f
12:54 15 18 mph 1014.8mb 30f 21f
12:48 15 17 mph 1014.8mb 30f 21f
12:42 15 18 mph 1015mb 30f 21f
12:36 14 16 mph 1015mb 30f 21f
12:30 14 16 mph 1015.1mb 30f 21f
12:24 15 17 mph 1015.3mb 30f 21f
12:18 15 17 mph 1015.6mb 30f 21f
12:12 14 18 mph 1015.7mb 30f 21f
12:06 15 17 mph 1015.8mb 30f 21f
12:00 14 16 mph 1016.1mb 30f 22f
11:54 11 17 mph 1016.3mb 30f 22f
11:48 14 16 mph 1016.3mb 30f 22f
11:42 14 16 mph 1016.3mb 30f 22f
11:36 13 17 mph 1016.4mb 30f 22f
11:30 14 15 mph 1016.5mb 30f 22f
11:24 14 16 mph 1016.6mb 30f 21f
11:18 15 17 mph 1016.7mb 30f 22f
11:12 13 18 mph 1016.5mb 30f 21f
11:06 15 18 mph 1016.4mb 30f 21f
11:00 15 18 mph 1016.5mb 30f 21f
10:54 14 17 mph 1016.6mb 30f 21f
10:48 15 20 mph 1016.7mb 30f 21f
10:42 16 21 mph 1016.6mb 30f 21f
10:36 16 20 mph 1016.4mb 30f 21f
10:30 15 18 mph 1016.5mb 30f 21f
10:24 15 20 mph 1016.3mb 30f 21f
10:18 15 20 mph 1016.4mb 30f 21f
10:12 14 18 mph 1016.6mb 30f 21f
10:06 16 21 mph 1016.9mb 30f 21f
10:00 13 16 mph 1017mb 30f 21f
9:54 14 21 mph 1017.1mb 30f 21f
9:48 15 18 mph 1017.1mb 30f 21f
9:42 16 21 mph 1017.2mb 30f 21f
9:36 16 21 mph 1017.3mb 30f 21f
9:30 16 22 mph 1017.5mb 30f 20f
9:24 13 20 mph 1017.5mb 30f 21f
9:18 16 22 mph 1017.4mb 30f 20f
9:12 14 17 mph 1017.8mb 30f 20f
9:06 16 20 mph 1017.6mb 30f 20f
9:00 16 20 mph 1017.4mb 30f 20f
8:54 14 20 mph 1017.7mb 30f 20f
8:48 16 20 mph 1017.5mb 30f 20f
8:42 14 17 mph 1017.9mb 30f 20f
8:36 10 15 mph 1017.9mb 30f 20f
8:30 11 14 mph 1018.1mb 30f 20f
8:24 10 15 mph 1018.2mb 30f 20f
8:18 10 14 mph 1018mb 30f 20f
8:12 11 14 mph 1018mb 30f 20f
8:06 11 15 mph 1017.7mb 30f 20f
8:00 13 15 mph 1017.9mb 30f 20f
7:54 10 14 mph 1018.1mb 30f 20f
7:48 11 16 mph 1018mb 30f 20f
7:42 14 16 mph 1017.8mb 30f 20f
7:36 11 14 mph 1017.8mb 30f 20f
7:30 11 15 mph 1017.7mb 30f 20f
7:24 11 14 mph 1017.8mb 30f 20f
7:18 11 15 mph 1017.5mb 30f 20f
7:12 11 16 mph 1017.3mb 30f 20f
7:06 10 14 mph 1017.4mb 30f 20f
7:00 10 15 mph 1017.4mb 30f 20f
6:54 9 11 mph 1017.4mb 30f 20f
6:48 11 14 mph 1017.5mb 30f 20f
6:42 10 14 mph 1017.3mb 30f 20f
6:36 14 15 mph 1017.2mb 30f 20f
6:30 11 16 mph 1017.2mb 30f 20f
6:24 13 14 mph 1017.4mb 30f 21f
6:18 13 15 mph 1017.6mb 30f 21f
6:12 11 15 mph 1017.7mb 30f 20f
6:06 9 11 mph 1017.8mb 30f 21f
6:00 11 14 mph 1017.8mb 30f 21f
5:54 11 14 mph 1017.7mb 30f 21f
5:48 10 15 mph 1017.6mb 30f 21f
5:42 10 13 mph 1017.4mb 30f 21f
5:36 9 11 mph 1017.5mb 30f 21f
5:30 11 14 mph 1017.2mb 30f 21f
5:24 9 13 mph 1017.4mb 30f 21f
5:18 11 13 mph 1017.5mb 30f 21f
5:12 9 14 mph 1017.5mb 30f 21f
5:06 11 15 mph 1017.2mb 30f 21f
5:00 10 14 mph 1017.4mb 30f 21f
4:54 11 14 mph 1017.1mb 30f 21f
4:48 14 17 mph 1017.1mb 30f 21f
4:42 14 18 mph 1016.8mb 30f 21f
4:36 14 16 mph 1017mb 30f 21f
4:30 13 15 mph 1017mb 30f 21f
4:24 13 15 mph 1017mb 30f 22f
4:18 11 14 mph 1016.8mb 30f 21f
4:12 14 16 mph 1016.8mb 30f 21f
4:06 14 17 mph 1016.5mb 30f 22f
4:00 14 16 mph 1016.7mb 30f 22f
3:54 14 15 mph 1016.9mb 30f 22f
3:48 14 15 mph 1016.9mb 30f 22f
3:42 14 16 mph 1017.3mb 30f 22f
3:36 14 15 mph 1017.6mb 30f 22f
3:30 14 16 mph 1017.3mb 30f 22f
3:24 14 16 mph 1017.7mb 30f 22f
3:18 13 16 mph 1017.2mb 30f 22f
3:12 11 15 mph 1016.7mb 30f 22f
3:06 14 16 mph 1016.7mb 30f 22f
3:00 13 17 mph 1016.9mb 30f 22f
2:54 17 20 mph 1016.7mb 30f 23f
2:48 14 15 mph 1016.5mb 30f 23f
2:42 11 17 mph 1016.6mb 30f 23f
2:36 14 16 mph 1016.7mb 30f 23f
2:30 15 18 mph 1017.1mb 30f 23f
2:24 16 18 mph 1017.1mb 30f 23f
2:18 16 18 mph 1017.5mb 30f 23f
2:12 17 20 mph 1017.5mb 30f 24f
2:06 16 18 mph 1017.3mb 30f 24f
2:00 15 17 mph 1017.3mb 30f 24f
1:54 16 18 mph 1017.2mb 30f 24f
1:48 16 18 mph 1017.2mb 30f 24f
1:42 16 18 mph 1017.1mb 30f 24f
1:36 14 20 mph 1017.3mb 30f 24f
1:30 17 20 mph 1017mb 30f 24f
1:24 14 17 mph 1017mb 31f 24f
1:18 15 18 mph 1016.7mb 31f 24f
1:12 16 18 mph 1016.6mb 31f 25f
1:06 16 20 mph 1016.7mb 31f 25f
1:00 17 21 mph 1016.6mb 31f 25f
12:54 16 21 mph 1016.4mb 31f 25f
12:48 14 21 mph 1016.6mb 31f 25f
12:42 18 22 mph 1016.5mb 31f 25f
12:36 17 22 mph 1016.5mb 31f 25f
12:30 20 22 mph 1016.2mb 31f 25f
12:24 17 22 mph 1016mb 31f 25f
12:18 20 23 mph 1015.9mb 31f 26f
12:12 18 23 mph 1015.7mb 31f 26f
12:06 17 22 mph 1015.4mb 31f 26f
12:00 16 20 mph 1015.4mb 31f 26f
mer. 02/25 11:54 17 21 mph 1015.3mb 31f 26f
11:48 15 21 mph 1015.1mb 31f 26f
11:42 17 20 mph 1015.2mb 31f 26f
11:36 17 21 mph 1015.1mb 31f 27f
11:30 20 22 mph 1015.1mb 31f 27f
11:24 18 20 mph 1015.2mb 31f 27f
11:18 16 18 mph 1015.5mb 31f 27f
11:12 14 15 mph 1015.7mb 31f 27f
11:06 13 15 mph 1015.8mb 31f 27f
11:00 11 13 mph 1015.8mb 31f 27f
10:54 11 13 mph 1016mb 31f 27f
10:48 10 14 mph 1016.1mb 31f 28f
10:42 13 16 mph 1016mb 31f 28f
10:36 15 17 mph 1016mb 31f 28f
10:30 15 18 mph 1016mb 31f 28f
10:24 15 20 mph 1016.1mb 31f 28f
10:18 11 14 mph 1016.1mb 31f 28f
10:12 11 13 mph 1015.9mb 31f 28f
10:06 9 11 mph 1015.8mb 31f 29f
10:00 9 11 mph 1015.6mb 31f 28f
9:54 9 11 mph 1015.4mb 31f 28f
9:48 10 11 mph 1015.3mb 31f 29f
9:42 10
mph
1015.4mb 31f 29f
9:36 9
mph
1015.4mb 31f 29f
9:30 8 10 mph 1015.4mb 31f 29f
9:24 9 10 mph 1015.5mb 31f 29f
9:18 8 9 mph 1015.6mb 31f 29f
9:12 8 9 mph 1015.5mb 31f 29f
9:06 8 9 mph 1015.1mb 31f 29f
9:00 8 10 mph 1015mb 31f 29f
8:54 10 11 mph 1014.9mb 31f 30f
8:48 9 11 mph 1014.7mb 31f 30f
8:42 9 11 mph 1014.4mb 31f 30f
8:36 9 10 mph 1014.3mb 31f 29f
8:30 8 9 mph 1014.1mb 31f 29f
8:24 9
mph
1013.9mb 31f 29f
8:18 8 9 mph 1013.8mb 31f 29f
8:12 7 8 mph 1013.4mb 31f 30f
8:06 6 10 mph 1013.3mb 31f 29f
8:00 7 8 mph 1013.1mb 31f 29f
7:54 7 8 mph 1012.9mb 31f 29f
7:48 8
mph
1012.7mb 31f 29f
7:42 8
mph
1012.5mb 31f 30f
7:36 7 9 mph 1012.4mb 31f 30f
7:30 8 9 mph 1012.3mb 31f 30f
7:24 9
mph
1012.3mb 31f 30f
7:18 9
mph
1012.1mb 31f 30f
7:12 9
mph
1011.9mb 31f 31f
7:06 9 10 mph 1011.8mb 31f 31f
7:00 8 9 mph 1011.8mb 31f 31f
6:54 8 9 mph 1011.7mb 31f 31f
6:48 7
mph
1011.6mb 31f 31f
6:42 6 8 mph 1011.2mb 31f 31f
6:36 7 8 mph 1011.2mb 31f 31f
6:30 8 9 mph 1010.8mb 31f 32f
6:24 8 10 mph 1010.9mb 31f 32f
6:18 9 10 mph 1010.8mb 31f 32f
6:12 9 10 mph 1010.9mb 31f 32f
6:06 8 10 mph 1010.8mb 31f 32f
6:00 7 8 mph 1010.7mb 31f 32f
5:54 7 9 mph 1010.8mb 31f 32f
5:48 8 10 mph 1010.7mb 31f 33f
5:42 8 10 mph 1010.6mb 31f 33f
5:36 9 11 mph 1010.5mb 31f 33f
5:30 8 10 mph 1010.3mb 31f 33f
5:24 10 17 mph 1010.3mb 31f 33f
5:18 13 20 mph 1010.1mb 31f 33f
5:12 13 15 mph 1010mb 31f 33f
5:06 14 18 mph 1009.8mb 31f 33f
5:00 11 17 mph 1009.7mb 31f 34f
4:54 14 18 mph 1009.7mb 31f 34f
4:48 16 21 mph 1009.8mb 31f 34f
4:42 15 20 mph 1009.5mb 31f 34f
4:36 17 21 mph 1009.5mb 31f 34f
4:30 15 17 mph 1009.3mb 30f 34f
4:24 13 18 mph 1009.1mb 30f 35f
4:18 17 21 mph 1009.2mb 30f 34f
4:12 17 22 mph 1008.9mb 30f 34f
4:06 20 23 mph 1008.8mb 30f 34f
4:00 24 28 mph 1008.6mb 30f 34f
3:54 23 30 mph 1008.6mb 30f 34f
3:48 20 23 mph 1008.6mb 30f 35f
3:42 20 26 mph 1008.6mb 30f 34f
3:36 20 23 mph 1008.6mb 30f 35f
3:30 17 25 mph 1008.4mb 30f 35f
3:24 23 28 mph 1008.4mb 30f 34f
3:18 20 25 mph 1008.4mb 30f 34f
3:12 16 23 mph 1008.3mb 30f 34f
3:06 15 21 mph 1007.9mb 30f 34f
3:00 20 23 mph 1008mb 30f 34f
2:54 11 18 mph 1008.1mb 30f 34f
2:48 14 21 mph 1008mb 30f 34f
2:42 21 24 mph 1007.9mb 30f 33f
2:36 17 22 mph 1007.7mb 30f 33f
2:30 20 23 mph 1007.8mb 30f 33f
2:24 18 23 mph 1007.7mb 30f 33f
2:18 23 28 mph 1007.7mb 30f 33f
2:12 22 25 mph 1007.4mb 30f 33f
2:06 22 26 mph 1007.5mb 30f 33f
2:00 22 29 mph 1007.6mb 30f 33f
1:54 18 25 mph 1007.4mb 30f 33f
1:48 21 24 mph 1007.2mb 30f 33f
1:42 20 24 mph 1007.1mb 30f 33f
1:36 18 22 mph 1007.2mb 30f 33f
1:30 17 20 mph 1007.1mb 30f 33f
1:24 18 23 mph 1007.1mb 30f 33f
1:18 16 24 mph 1006.9mb 30f 33f
1:12 20 24 mph 1006.9mb 30f 32f
1:06 20 23 mph 1007mb 30f 32f
1:00 10 14 mph 1006.7mb 30f 32f
12:54 10 16 mph 1006.8mb 30f 32f
12:48 13 16 mph 1006.8mb 30f 31f
12:42 15 18 mph 1006.7mb 30f 31f
12:36 14 20 mph 1006.8mb 30f 31f
12:30 16 20 mph 1006.8mb 30f 31f
12:24 14 18 mph 1006.8mb 30f 31f
12:18 16 18 mph 1006.9mb 30f 31f
12:12 16 21 mph 1007mb 30f 30f
12:06 14 18 mph 1007.1mb 30f 30f
12:00 13 17 mph 1007.3mb 30f 30f
11:54 14 16 mph 1007.5mb 30f 29f
11:48 14 17 mph 1007.2mb 30f 29f
11:42 11 15 mph 1007.4mb 30f 29f
11:36 14 17 mph 1007.6mb 30f 29f
11:30 14 17 mph 1007.7mb 30f 29f
11:24 14 17 mph 1007.8mb 30f 28f
11:18 15 20 mph 1008mb 30f 28f
11:12 16 21 mph 1007.8mb 30f 28f
11:06 14 18 mph 1007.9mb 30f 28f
11:00 17 22 mph 1008mb 30f 28f
10:54 16 18 mph 1008.1mb 30f 28f
10:48 10 16 mph 1008.1mb 30f 28f
10:42 14 16 mph 1008.2mb 30f 27f
10:36 14 20 mph 1008.1mb 30f 27f
10:30 17 20 mph 1008.1mb 30f 27f
10:24 17 22 mph 1008.1mb 30f 27f
10:18 14 16 mph 1008.2mb 30f 26f
10:12 15 18 mph 1008.1mb 30f 26f
10:06 15 21 mph 1008.1mb 30f 26f
10:00 17 22 mph 1008mb 30f 25f
9:54 17 20 mph 1007.9mb 30f 25f
9:48 13 17 mph 1007.9mb 30f 25f
9:42 16 18 mph 1008mb 30f 24f
9:36 16 20 mph 1008mb 30f 24f
9:30 13 17 mph 1008mb 30f 24f
9:24 14 16 mph 1007.9mb 30f 24f
9:18 10 13 mph 1007.9mb 30f 23f
9:12 8 9 mph 1008mb 30f 23f
9:06 7 9 mph 1007.9mb 30f 23f
9:00 5 7 mph 1007.9mb 30f 23f
8:54 3 9 mph 1007.9mb 30f 22f
8:48 7 11 mph 1007.9mb 30f 21f
8:42 8 10 mph 1007.8mb 30f 21f
8:36 6 7 mph 1007.8mb 30f 20f
8:30 3 5 mph 1007.7mb 30f 20f
8:24 3 8 mph 1007.8mb 30f 20f
8:18 6 8 mph 1007.8mb 30f 19f
8:12 6 10 mph 1007.7mb 30f 19f
8:06 6 9 mph 1007.7mb 30f 20f
8:00 8 9 mph 1007.8mb 30f 20f
7:54 5 8 mph 1007.6mb 30f 20f
7:48 5 7 mph 1007.6mb 30f 21f
7:42 2
mph
1007.5mb 30f 22f
7:36 1 2 mph 1007.4mb 30f 22f
7:30 1 2 mph 1007.2mb 30f 20f
7:24 2 3 mph 1007.2mb 30f 19f
7:18 2
mph
1007.3mb 30f 18f
7:12 3 5 mph 1007.2mb 30f 17f
7:06 5
mph
1007.2mb 30f 17f
7:00 3 5 mph 1007.1mb 30f 16f
6:54 5 6 mph 1007.1mb 30f 16f
6:48 5 6 mph 1007.1mb 30f 17f
6:42 5 6 mph 1007.1mb 30f 17f
6:36 5
mph
1007mb 30f 17f
6:30 5
mph
1006.8mb 30f 17f
6:24 5 6 mph 1006.8mb 30f 17f
6:18 6
mph
1006.8mb 30f 17f
6:12 5 6 mph 1006.8mb 30f 17f
4:54 6 7 mph 1006.7mb 30f 20f
4:48 6 7 mph 1006.8mb 30f 20f
4:42 6 7 mph 1006.8mb 30f 20f
4:36 6 7 mph 1006.8mb 30f 20f
4:30 6
mph
1006.7mb 30f 21f
4:24 6
mph
1006.7mb 30f 21f
4:18 6 7 mph 1006.8mb 30f 21f
4:12 6 7 mph 1006.8mb 30f 21f
4:06 6 7 mph 1006.9mb 30f 21f
4:00 6 7 mph 1007mb 30f 21f
3:54 6 7 mph 1007.1mb 30f 21f
3:48 6 8 mph 1007.2mb 30f 21f
3:42 8 9 mph 1007.3mb 30f 21f
3:36 6 7 mph 1007.4mb 30f 21f
3:30 6 7 mph 1007.5mb 30f 21f
3:24 7 8 mph 1007.6mb 30f 20f
3:18 7 9 mph 1007.7mb 30f 21f
3:12 8 9 mph 1007.7mb 30f 21f
3:06 9 10 mph 1007.8mb 30f 21f
3:00 9
mph
1007.9mb 30f 20f
2:54 9 10 mph 1008mb 30f 20f
2:48 7 8 mph 1008.1mb 30f 20f
2:42 6 7 mph 1008mb 30f 20f
2:36 6 9 mph 1008.1mb 30f 20f
2:30 8
mph
1008.2mb 30f 20f
2:24 7 8 mph 1008.3mb 30f 20f
2:18 7
mph
1008.3mb 30f 20f
2:12 6 8 mph 1008.4mb 30f 20f
2:06 7 8 mph 1008.6mb 30f 20f
2:00 8 9 mph 1008.7mb 30f 19f
1:54 8 10 mph 1008.8mb 30f 20f